Погода в Урицке

Погода в Урицке : погода сейчас, прогноз погоды и архив. Всё, что Вы хотите узнать о погоде в Урицке!

Поиск расширенной информации на нашем сайте:

Другие новости

Новости СМИ2

Главная страница сайта

Новости сайта

02.10.2013

Напоминаем, что на нашем новом сайте вы можете получить высокодетализированные прогнозы погоды по пунктам России, СНГ и мира (включающие важные для авиации метеовеличины, такие как направление и скорость ветра, видимость, явления погоды, количество и форма облачности, нижняя и верхняя граница облачности), а также ознакомиться с разнообразными материалами по авиационной метеорологии и подборкой полезных ссылок на эту тему.

Сайт Метеоцентр.Азия посвящён разработке технологий оптимизации авиаметеорологического обслуживания, включая проектирование и перспективное создание нескольких автоматизированных авиаметеорологических систем:
- система выпуска высокодетальных прогностических карт явлений погоды для нижнего воздушного пространства по России и ближнему зарубежью;
- система верификации прогнозов TAF (выпускаемых синоптиками официальных АМСГ РФ и ближнего зарубежья) и AUTOTAF (выпускаемых сайтом Метеоцентр.Азия) - выявление ошибок, онлайн-сопоставление с фактической погодой METAR, автоматическое внесение коррективов в прогнозы при резком отклонении фактической погоды от прогноза, подсчёт оправдываемости прогнозов по элементам и в целом;
- система обработки, анализа и отображения авиаметеорологической информации для применения провайдерами метеорологической информации.

Рекомендуем: Ролмастер изготовление Рольставней forec.ru.

Погода в Урицке - сегодня

Время (UTC), дата Ветер
(°,м/с) 
Видим.   Явления Облачность Т
(°С)
Тd
(°С)
f(%) Тe
(°С)
Pmin
(гПа)
dP
(гПа)
Po
(мм)
O2
(г/м3)
Тmin Tmax R s Состояние
почвы
03 20.04.17 150 (ЮВ) 20000 м    ясно 
+10 +3.6 64 +9  1020.9  -0.2  746  289           
06 20.04.17 180 (Ю) 20000 м    3/0 средняя 
[Ac trans]
+18.3 +10 58 +19  1019.8  -0.3  746  280  +5         
09 20.04.17 170 (Ю) 20000 м    5/5 600 м 
[Cu med, cong]
+20.8 +12.1 57 +25  1016.1  -0.9  745  277           
12 20.04.17 130 (ЮВ) 20000 м    3/3 600 м 
[Cu med, cong]
+22.3 +13.5 57 +29  1016.5  -2  744  274           
15 20.04.17 120 (ЮВ) 20000 м    4/3 600 м верхняя 
[Cu med, cong|Ci sp]
+18 +11 64 +21  1015.8  -1.1  743  279    +22.7       
18 20.04.17 120 (ЮВ) н/о    ясно 
+13.8 +7.3 65 +13  1015.9  -0.3  743  284    +22.7       
21 20.04.17 130 (ЮВ) н/о    ясно 
+12 +5.8 66 +11  1014.3  -1.7  741  285           
00 21.04.17 130 (ЮВ) 20000 м    8/8 600 м 
[Sc]
+10.2 +4.6 68 +8  1012.2  -2.2  740  287           
03 21.04.17 140 (ЮВ) 20000 м    8/5 600 м верхняя 
[Sc|Ci sp]
+10.4 +4.3 66 +8  1010.7  -1.5  739  286           
06 21.04.17 130 (ЮВ) 10  20000 м    8/0 верхняя 
[Ci sp]
+16.4 +8.6 60 +15  1007.3  -2.6  737  278  +10         
09 21.04.17 160 (Ю) 20000 м    5/0 верхняя 
[Ci sp]
+20.2 +11.5 57 +24  1005.9  -1.1  736  274           
12 21.04.17 160 (Ю) 20000 м    8/0 верхняя 
[Ci sp]
+21 +12.3 58 +26  1003.8  -2  734  272           
15 21.04.17 270 (З) 20000 м    4/3 600 м верхняя 
[Cu med, cong|Ci sp]
+17.6 +10 61 +19  1003.2  -0.9  734  276    +21.8       
18 21.04.17 300 (СЗ) 11  н/о  зарница  6/6 600 м 
[Cu med, cong]
+10.7 +4 63 +8  1005  1.1  734  284    +21.8       
21 21.04.17 310 (СЗ) 13  н/о    ясно 
+9.8 +3.8 66 +7  1009.4  4.2  738  286           
00 22.04.17 290 (З) 10  20000 м    ясно 
+1.2 -3.7 70 -3  1012.7  2.5  740  297           
03 22.04.17 300 (СЗ) 12  20000 м    ясно 
+0.4 -4.7 69 -5  1015.6  2.6  741  299           
06 22.04.17 290 (З) 10  20000 м    3/3 600 м 
[Cu med, cong]
+3.6 -2.7 63 1016.9  1.6  743  296  +0.1         
09 22.04.17 270 (З) 20000 м    ясно 
+6.2 -1.3 59 +3  1017.6  743  293           
12 22.04.17 260 (З) 20000 м    ясно 
+8.6 +0.4 56 +7  1018  0.6  744  290           
15 22.04.17 120 (ЮВ) 20000 м    8/0 верхняя 
[Ci sp]
+7.7 +0 58 +8  1017.9  -0.2  744  291    +8.9       
18 22.04.17 180 (Ю) н/о    ясно 
+3.6 -2.7 63 +2  1017.9  -0.4  743  296    +8.9       
21 22.04.17 120 (ЮВ) н/о    6/6 600 м 
[Sc]
+4.4 -1.7 65 +2  1016.1  -1.7  742  294           
00 23.04.17 130 (ЮВ) 20000 м    10/10 600 м 
[Sc]
+4.2 -1.6 66 +1  1013.2  -2.8  740  294           
03 23.04.17 120 (ЮВ) 12  20000 м    10/10 600 м 
[Sc]
+4.6 -1.8 63 1007.2  -5.8  736  292           
Время (UTC), дата Ветер
(°,м/с) 
Видим.   Явления Облачность Т
(°С)
Тd
(°С)
f(%) Тe
(°С)
Pmin
(гПа)
dP
(гПа)
Po
(мм)
O2
(г/м3)
Тmin Tmax R s Состояние
почвы

Для получения пояснительной информации подведите курсор к названию столбца.

ПОГОДА в Урицке - архив

Всё, что Вы хотите узнать о погоде в Урицке - удобно и подробно!

Выберите нужную дату (начиная с 1 января 2015* года) и нажмите кнопку "Найти".
Будут отображены архивные сводки погоды по пункту Урицк, начиная с указанной даты.


Отображать данные в формате CSV (для использования в таблицах Excel)


Внимание! Наш архив погоды предназначен исключительно для личного некоммерческого использования в познавательных целях. Если Вам необходимы официальные справки о состоянии погоды (для производственных, юридических, коммерческих и т.п. целей), обращайтесь в органы Росгидромета.

*Примечание: данная дата относится к архиву по метеостанциям СССР (Россия, СНГ, Балтия).
Архив по метеостанциям Зарубежной Европы и Азии (кроме Китая) хранится 10 дней, по другим регионам земного шара (Китай, Африка, Америка, Австралия, Океания) - 1 день.

Урицк - район местоположения метеостанции


Название, широта, долгота, высота метеостанции:
Урицк 53.3°ш. 65.6°д. 216 м над ур. моря [Казахстан]

Дополнительная информация

В oтличие oт бoльшинства пoгoдных сайтoв мы публикуем пoдрoбную метеoинфoрмацию в детальнoм прoфессиoнальнoм фoрмате.

Характеристики температуры и влажнoсти вoздуха измеряются на высoте 2 м в тени вдали oт зданий и деревьев.
Скoрoсть ветра измеряется на высoте 10 м (на урoвне рoста челoвека скoрoсть ветра ниже в 1.5-2 раза). Если метеoстанция нахoдится в гoрoде или в лесу, тo скoрoсть ветра занижена на 2-4 м/с пo сравнению с oткрытым местoм. Скoрoсть ветра над акватoриями крупных рек и oзёр, а также на вершинах хoлмoв на 2-5 м/с выше, чем в oбычных услoвиях.
Атмoсфернoе давление в разных тoчках местнoсти мoжет значительнo oтличаться oт давления на метеoстанции, в зависимoсти oт услoвий рельефа (при пoдъёме на 10 м давление пoнижается примернo на 1 мм рт.ст.).